Time,TemperatureF,DewpointF,PressureIn,WindDirection,WindDirectionDegrees,WindSpeedMPH,WindSpeedGustMPH,Humidity,HourlyPrecipIn,Conditions,Clouds,dailyrainin,SolarRadiationWatts/m^2,SoftwareType,DateUTC
2013-03-17 00:02:00,55.8,23.9,29.91,West,279,1.0,1.0,29,0.00,,,0.00,0.0,meteohub,2013-03-17 07:02:00,
2013-03-17 00:07:00,55.6,23.9,29.91,West,279,1.0,1.0,29,0.00,,,0.00,0.0,meteohub,2013-03-17 07:07:00,
2013-03-17 00:12:00,55.6,23.9,29.91,West,279,0.0,1.0,29,0.00,,,0.00,0.0,meteohub,2013-03-17 07:12:00,
2013-03-17 00:17:00,55.4,23.7,29.90,West,279,0.0,1.0,29,0.00,,,0.00,0.0,meteohub,2013-03-17 07:17:00,
2013-03-17 00:19:00,55.2,23.5,29.91,West,279,0.0,1.0,29,0.00,,,0.00,0.0,meteohub,2013-03-17 07:19:00,
2013-03-17 00:27:00,55.0,23.4,29.90,WSW,244,0.0,1.0,29,0.00,,,0.00,0.0,meteohub,2013-03-17 07:27:00,
2013-03-17 00:32:00,54.9,24.1,29.91,WSW,244,0.0,3.0,30,0.00,,,0.00,0.0,meteohub,2013-03-17 07:32:00,
2013-03-17 00:37:00,54.5,24.4,29.91,WSW,244,0.0,3.0,31,0.00,,,0.00,0.0,meteohub,2013-03-17 07:37:00,
2013-03-17 00:42:00,54.1,23.4,29.91,WSW,244,0.0,3.0,30,0.00,,,0.00,0.0,meteohub,2013-03-17 07:42:00,
2013-03-17 00:47:00,54.0,24.1,29.91,WSW,244,1.0,2.0,31,0.00,,,0.00,0.0,meteohub,2013-03-17 07:47:00,
2013-03-17 00:52:00,53.8,23.9,29.91,WSW,244,1.0,2.0,31,0.00,,,0.00,0.0,meteohub,2013-03-17 07:52:00,
2013-03-17 00:57:00,53.4,24.3,29.91,WSW,244,0.0,2.0,32,0.00,,,0.00,0.0,meteohub,2013-03-17 07:57:00,
2013-03-17 01:03:00,53.1,24.8,29.91,WSW,244,1.0,2.0,33,0.00,,,0.00,0.0,meteohub,2013-03-17 08:03:00,
2013-03-17 01:08:00,53.1,25.3,29.91,WSW,244,0.0,1.0,34,0.00,,,0.00,0.0,meteohub,2013-03-17 08:08:00,
2013-03-17 01:13:00,53.1,24.8,29.91,WSW,244,0.0,1.0,33,0.00,,,0.00,0.0,meteohub,2013-03-17 08:13:00,
2013-03-17 01:18:00,53.1,24.8,29.91,WSW,244,0.0,1.0,33,0.00,,,0.00,0.0,meteohub,2013-03-17 08:18:00,
2013-03-17 01:23:00,53.1,24.8,29.91,WSW,244,0.0,1.0,33,0.00,,,0.00,0.0,meteohub,2013-03-17 08:23:00,
2013-03-17 01:28:00,53.2,25.5,29.91,WSW,244,0.0,1.0,34,0.00,,,0.00,0.0,meteohub,2013-03-17 08:28:00,
2013-03-17 01:33:00,53.1,26.1,29.90,WSW,244,1.0,1.0,35,0.00,,,0.00,0.0,meteohub,2013-03-17 08:33:00,
2013-03-17 01:38:00,53.1,25.3,29.90,WSW,244,1.0,1.0,34,0.00,,,0.00,0.0,meteohub,2013-03-17 08:38:00,
2013-03-17 01:43:00,52.5,25.7,29.90,WSW,244,0.0,2.0,35,0.00,,,0.00,0.0,meteohub,2013-03-17 08:43:00,
2013-03-17 01:48:00,52.3,25.5,29.90,WSW,244,0.0,2.0,35,0.00,,,0.00,0.0,meteohub,2013-03-17 08:48:00,
2013-03-17 01:53:00,52.0,25.2,29.90,WSW,244,0.0,2.0,35,0.00,,,0.00,0.0,meteohub,2013-03-17 08:53:00,
2013-03-17 01:58:00,51.8,25.7,29.90,WSW,244,0.0,1.0,36,0.00,,,0.00,0.0,meteohub,2013-03-17 08:58:00,
2013-03-17 02:03:00,51.6,24.8,29.90,WSW,244,1.0,1.0,35,0.00,,,0.00,0.0,meteohub,2013-03-17 09:03:00,
2013-03-17 02:08:00,51.6,24.1,29.91,WSW,244,2.0,2.0,34,0.00,,,0.00,0.0,meteohub,2013-03-17 09:08:00,
2013-03-17 02:13:00,51.4,24.6,29.90,WSW,244,1.0,2.0,35,0.00,,,0.00,0.0,meteohub,2013-03-17 09:13:00,
2013-03-17 02:18:00,51.3,25.2,29.91,WSW,244,0.0,2.0,36,0.00,,,0.00,0.0,meteohub,2013-03-17 09:18:00,
2013-03-17 02:23:00,51.3,24.6,29.91,WSW,244,1.0,2.0,35,0.00,,,0.00,0.0,meteohub,2013-03-17 09:23:00,
2013-03-17 02:28:00,51.1,25.7,29.91,WSW,244,0.0,1.0,37,0.00,,,0.00,0.0,meteohub,2013-03-17 09:28:00,
2013-03-17 02:33:00,50.7,24.8,29.90,WSW,244,0.0,1.0,36,0.00,,,0.00,0.0,meteohub,2013-03-17 09:33:00,
2013-03-17 02:38:00,50.7,25.3,29.91,WSW,244,1.0,1.0,37,0.00,,,0.00,0.0,meteohub,2013-03-17 09:38:00,
2013-03-17 02:43:00,50.5,23.9,29.90,WSW,244,1.0,2.0,35,0.00,,,0.00,0.0,meteohub,2013-03-17 09:43:00,
2013-03-17 02:48:00,50.9,24.8,29.90,WSW,244,1.0,2.0,36,0.00,,,0.00,0.0,meteohub,2013-03-17 09:48:00,
2013-03-17 02:53:00,51.1,25.0,29.90,WSW,244,0.0,2.0,36,0.00,,,0.00,0.0,meteohub,2013-03-17 09:53:00,
2013-03-17 02:58:00,51.1,24.4,29.90,WSW,244,1.0,2.0,35,0.00,,,0.00,0.0,meteohub,2013-03-17 09:58:00,
2013-03-17 03:03:00,51.3,24.6,29.89,WSW,244,0.0,1.0,35,0.00,,,0.00,0.0,meteohub,2013-03-17 10:03:00,
2013-03-17 03:08:00,51.3,24.6,29.90,WSW,244,1.0,2.0,35,0.00,,,0.00,0.0,meteohub,2013-03-17 10:08:00,
2013-03-17 03:14:00,51.1,23.0,29.89,WSW,244,0.0,2.0,33,0.00,,,0.00,0.0,meteohub,2013-03-17 10:14:00,
2013-03-17 03:19:00,51.1,23.0,29.89,WSW,244,2.0,2.0,33,0.00,,,0.00,0.0,meteohub,2013-03-17 10:19:00,
2013-03-17 03:24:00,52.2,22.5,29.89,WSW,244,0.0,2.0,31,0.00,,,0.00,0.0,meteohub,2013-03-17 10:24:00,
2013-03-17 03:29:00,52.2,21.7,29.89,WSW,244,1.0,2.0,30,0.00,,,0.00,0.0,meteohub,2013-03-17 10:29:00,
2013-03-17 03:34:00,53.1,21.6,29.89,West,264,2.0,2.0,29,0.00,,,0.00,0.0,meteohub,2013-03-17 10:34:00,
2013-03-17 03:39:00,54.3,20.1,29.89,West,275,1.0,3.0,26,0.00,,,0.00,0.0,meteohub,2013-03-17 10:39:00,
2013-03-17 03:44:00,55.6,21.2,29.89,West,275,1.0,3.0,26,0.00,,,0.00,0.0,meteohub,2013-03-17 10:44:00,
2013-03-17 03:49:00,56.1,20.8,29.89,West,275,1.0,3.0,25,0.00,,,0.00,0.0,meteohub,2013-03-17 10:49:00,
2013-03-17 03:54:00,56.7,20.3,29.89,West,275,2.0,3.0,24,0.00,,,0.00,0.0,meteohub,2013-03-17 10:54:00,
2013-03-17 03:59:00,56.5,19.0,29.89,West,275,1.0,3.0,23,0.00,,,0.00,0.0,meteohub,2013-03-17 10:59:00,
2013-03-17 04:04:00,56.5,19.0,29.89,West,275,1.0,3.0,23,0.00,,,0.00,0.0,meteohub,2013-03-17 11:04:00,
2013-03-17 04:09:00,56.7,20.3,29.88,West,275,2.0,3.0,24,0.00,,,0.00,0.0,meteohub,2013-03-17 11:09:00,
2013-03-17 04:14:00,56.7,20.3,29.88,West,275,1.0,3.0,24,0.00,,,0.00,0.0,meteohub,2013-03-17 11:14:00,
2013-03-17 04:19:00,56.1,19.8,29.88,West,275,2.0,3.0,24,0.00,,,0.00,0.0,meteohub,2013-03-17 11:19:00,
2013-03-17 04:24:00,56.5,18.1,29.88,WNW,288,1.0,2.0,22,0.00,,,0.00,0.0,meteohub,2013-03-17 11:24:00,
2013-03-17 04:29:00,57.2,17.6,29.89,WNW,289,0.0,4.0,21,0.00,,,0.00,0.0,meteohub,2013-03-17 11:29:00,
2013-03-17 04:34:00,57.4,18.9,29.88,WNW,289,2.0,4.0,22,0.00,,,0.00,0.0,meteohub,2013-03-17 11:34:00,
2013-03-17 04:39:00,57.4,17.8,29.89,WNW,291,1.0,4.0,21,0.00,,,0.00,0.0,meteohub,2013-03-17 11:39:00,
2013-03-17 04:44:00,57.9,18.1,29.89,WNW,294,2.0,3.0,21,0.00,,,0.00,0.0,meteohub,2013-03-17 11:44:00,
2013-03-17 04:49:00,58.1,17.2,29.89,WNW,294,2.0,3.0,20,0.00,,,0.00,0.0,meteohub,2013-03-17 11:49:00,
2013-03-17 04:54:00,58.3,17.4,29.89,WNW,294,1.0,3.0,20,0.00,,,0.00,0.0,meteohub,2013-03-17 11:54:00,
2013-03-17 04:59:00,58.5,17.6,29.89,WNW,294,2.0,3.0,20,0.00,,,0.00,0.0,meteohub,2013-03-17 11:59:00,
2013-03-17 05:04:00,58.1,17.2,29.89,WNW,294,2.0,3.0,20,0.00,,,0.00,0.0,meteohub,2013-03-17 12:04:00,
2013-03-17 05:09:00,57.7,16.9,29.89,WNW,294,2.0,3.0,20,0.00,,,0.00,0.0,meteohub,2013-03-17 12:09:00,
2013-03-17 05:14:00,57.6,18.0,29.89,WNW,294,2.0,3.0,21,0.00,,,0.00,0.0,meteohub,2013-03-17 12:14:00,
2013-03-17 05:19:00,57.2,17.6,29.89,SSW,207,1.0,3.0,21,0.00,,,0.00,0.0,meteohub,2013-03-17 12:19:00,
2013-03-17 05:24:00,56.7,18.3,29.89,SSW,207,2.0,3.0,22,0.00,,,0.00,0.0,meteohub,2013-03-17 12:24:00,
2013-03-17 05:29:00,55.8,18.5,29.89,SSW,207,2.0,3.0,23,0.00,,,0.00,0.0,meteohub,2013-03-17 12:29:00,
2013-03-17 05:34:00,55.2,19.0,29.89,SSW,207,2.0,3.0,24,0.00,,,0.00,0.0,meteohub,2013-03-17 12:34:00,
2013-03-17 05:39:00,55.0,16.9,29.89,SSW,207,0.0,2.0,22,0.00,,,0.00,0.0,meteohub,2013-03-17 12:39:00,
2013-03-17 05:44:00,54.7,18.5,29.90,SSW,207,1.0,2.0,24,0.00,,,0.00,0.0,meteohub,2013-03-17 12:44:00,
2013-03-17 05:49:00,54.1,19.0,29.90,SSW,207,0.0,2.0,25,0.00,,,0.00,0.0,meteohub,2013-03-17 12:49:00,
2013-03-17 05:54:00,53.6,17.6,29.91,SSW,207,1.0,2.0,24,0.00,,,0.00,0.0,meteohub,2013-03-17 12:54:00,
2013-03-17 05:59:00,53.4,20.3,29.90,SSW,207,1.0,2.0,27,0.00,,,0.00,0.0,meteohub,2013-03-17 12:59:00,
2013-03-17 06:04:00,53.1,20.8,29.91,SSW,207,0.0,2.0,28,0.00,,,0.00,0.0,meteohub,2013-03-17 13:04:00,
2013-03-17 06:10:00,52.5,20.3,29.91,SSW,207,1.0,2.0,28,0.00,,,0.00,0.0,meteohub,2013-03-17 13:10:00,
2013-03-17 06:15:00,52.0,20.7,29.91,SSW,207,1.0,2.0,29,0.00,,,0.00,0.0,meteohub,2013-03-17 13:15:00,
2013-03-17 06:20:00,51.4,20.3,29.91,SSW,207,1.0,2.0,29,0.00,,,0.00,0.0,meteohub,2013-03-17 13:20:00,
2013-03-17 06:25:00,51.3,20.8,29.91,SSW,207,0.0,2.0,30,0.00,,,0.00,0.0,meteohub,2013-03-17 13:25:00,
2013-03-17 06:30:00,50.7,20.5,29.91,SSW,207,1.0,2.0,30,0.00,,,0.00,5.0,meteohub,2013-03-17 13:30:00,
2013-03-17 06:35:00,50.7,20.5,29.91,South,190,1.0,2.0,30,0.00,,,0.00,9.0,meteohub,2013-03-17 13:35:00,
2013-03-17 06:40:00,50.7,21.2,29.91,South,190,0.0,4.0,31,0.00,,,0.00,12.0,meteohub,2013-03-17 13:40:00,
2013-03-17 06:45:00,50.5,21.0,29.91,South,190,1.0,4.0,31,0.00,,,0.00,16.0,meteohub,2013-03-17 13:45:00,
2013-03-17 06:50:00,50.2,20.7,29.92,South,190,1.0,4.0,31,0.00,,,0.00,21.0,meteohub,2013-03-17 13:50:00,
2013-03-17 06:55:00,49.6,22.5,29.92,WSW,241,0.0,2.0,34,0.00,,,0.00,25.0,meteohub,2013-03-17 13:55:00,
2013-03-17 07:00:00,49.8,21.9,29.92,SW,225,0.0,3.0,33,0.00,,,0.00,39.0,meteohub,2013-03-17 14:00:00,
2013-03-17 07:05:00,50.4,22.3,29.92,West,273,1.0,3.0,33,0.00,,,0.00,54.0,meteohub,2013-03-17 14:05:00,
2013-03-17 07:10:00,51.3,21.6,29.92,West,273,2.0,3.0,31,0.00,,,0.00,72.0,meteohub,2013-03-17 14:10:00,
2013-03-17 07:15:00,52.5,23.5,29.93,WSW,246,1.0,2.0,32,0.00,,,0.00,90.0,meteohub,2013-03-17 14:15:00,
2013-03-17 07:20:00,53.4,22.8,29.93,WSW,246,0.0,3.0,30,0.00,,,0.00,111.0,meteohub,2013-03-17 14:20:00,
2013-03-17 07:25:00,54.3,21.9,29.93,WSW,246,0.0,3.0,28,0.00,,,0.00,128.0,meteohub,2013-03-17 14:25:00,
2013-03-17 07:30:00,55.9,24.1,29.93,West,269,0.0,2.0,29,0.00,,,0.00,151.0,meteohub,2013-03-17 14:30:00,
2013-03-17 07:35:00,57.7,20.1,29.93,West,269,0.0,2.0,23,0.00,,,0.00,176.0,meteohub,2013-03-17 14:35:00,
2013-03-17 07:40:00,61.0,20.8,29.93,WNW,295,1.0,4.0,21,0.00,,,0.00,197.0,meteohub,2013-03-17 14:40:00,
2013-03-17 07:45:00,62.4,24.1,29.94,WNW,295,0.0,4.0,23,0.00,,,0.00,218.0,meteohub,2013-03-17 14:45:00,
2013-03-17 07:50:00,63.9,23.2,29.94,WNW,295,1.0,4.0,21,0.00,,,0.00,237.0,meteohub,2013-03-17 14:50:00,
2013-03-17 07:55:00,65.1,19.2,29.94,WNW,291,0.0,2.0,17,0.00,,,0.00,257.0,meteohub,2013-03-17 14:55:00,
2013-03-17 08:00:00,66.4,18.9,29.94,WNW,291,2.0,2.0,16,0.00,,,0.00,272.0,meteohub,2013-03-17 15:00:00,
2013-03-17 08:05:00,67.3,22.3,29.94,SSW,212,5.0,7.0,18,0.00,,,0.00,292.0,meteohub,2013-03-17 15:05:00,
2013-03-17 08:10:00,65.8,23.7,29.94,SW,225,1.0,7.0,20,0.00,,,0.00,313.0,meteohub,2013-03-17 15:10:00,
2013-03-17 08:15:00,65.7,22.3,29.94,West,262,0.0,7.0,19,0.00,,,0.00,330.0,meteohub,2013-03-17 15:15:00,
2013-03-17 08:20:00,66.4,21.6,29.95,West,262,2.0,6.0,18,0.00,,,0.00,350.0,meteohub,2013-03-17 15:20:00,
2013-03-17 08:25:00,67.3,19.6,29.95,WNW,299,2.0,4.0,16,0.00,,,0.00,369.0,meteohub,2013-03-17 15:25:00,
2013-03-17 08:30:00,67.8,18.5,29.95,WNW,288,2.0,4.0,15,0.00,,,0.00,387.0,meteohub,2013-03-17 15:30:00,
2013-03-17 08:35:00,68.5,15.8,29.95,West,266,2.0,4.0,13,0.00,,,0.00,406.0,meteohub,2013-03-17 15:35:00,
2013-03-17 08:40:00,68.7,15.8,29.95,West,259,3.0,4.0,13,0.00,,,0.00,424.0,meteohub,2013-03-17 15:40:00,
2013-03-17 08:45:00,69.1,16.2,29.96,West,260,1.0,4.0,13,0.00,,,0.00,439.0,meteohub,2013-03-17 15:45:00,
2013-03-17 08:50:00,69.4,18.1,29.96,WNW,290,0.0,4.0,14,0.00,,,0.00,459.0,meteohub,2013-03-17 15:50:00,
2013-03-17 08:55:00,69.6,18.3,29.96,WSW,254,1.0,5.0,14,0.00,,,0.00,476.0,meteohub,2013-03-17 15:55:00,
2013-03-17 09:00:00,69.4,16.5,29.96,West,281,1.0,5.0,13,0.00,,,0.00,494.0,meteohub,2013-03-17 16:00:00,
2013-03-17 09:05:00,69.8,16.7,29.96,WSW,239,2.0,5.0,13,0.00,,,0.00,512.0,meteohub,2013-03-17 16:05:00,
2013-03-17 09:10:00,69.6,16.5,29.96,West,281,2.0,6.0,13,0.00,,,0.00,527.0,meteohub,2013-03-17 16:10:00,
2013-03-17 09:15:00,70.0,18.5,29.96,West,263,3.0,6.0,14,0.00,,,0.00,543.0,meteohub,2013-03-17 16:15:00,
2013-03-17 09:17:00,70.0,16.9,29.96,SW,224,2.0,6.0,13,0.00,,,0.00,550.0,meteohub,2013-03-17 16:17:00,
2013-03-17 09:22:00,70.3,17.2,29.96,West,264,2.0,6.0,13,0.00,,,0.00,568.0,meteohub,2013-03-17 16:22:00,
2013-03-17 09:27:00,70.9,17.6,29.96,WSW,248,2.0,4.0,13,0.00,,,0.00,582.0,meteohub,2013-03-17 16:27:00,
2013-03-17 09:32:00,70.9,17.6,29.96,West,281,1.0,5.0,13,0.00,,,0.00,598.0,meteohub,2013-03-17 16:32:00,
2013-03-17 09:37:00,71.4,18.0,29.96,SW,224,3.0,5.0,13,0.00,,,0.00,613.0,meteohub,2013-03-17 16:37:00,
2013-03-17 09:42:00,71.6,18.1,29.96,West,261,1.0,5.0,13,0.00,,,0.00,631.0,meteohub,2013-03-17 16:42:00,
2013-03-17 09:47:00,72.1,16.7,29.96,SSW,210,2.0,3.0,12,0.00,,,0.00,645.0,meteohub,2013-03-17 16:47:00,
2013-03-17 09:52:00,72.0,16.5,29.96,SW,223,4.0,4.0,12,0.00,,,0.00,659.0,meteohub,2013-03-17 16:52:00,
2013-03-17 09:57:00,72.1,16.7,29.96,SW,228,3.0,5.0,12,0.00,,,0.00,677.0,meteohub,2013-03-17 16:57:00,
2013-03-17 10:02:00,72.3,18.7,29.96,SW,234,2.0,5.0,13,0.00,,,0.00,689.0,meteohub,2013-03-17 17:02:00,
2013-03-17 10:07:00,72.7,19.0,29.96,SSW,203,1.0,5.0,13,0.00,,,0.00,701.0,meteohub,2013-03-17 17:07:00,
2013-03-17 10:12:00,73.2,19.4,29.96,SW,227,2.0,6.0,13,0.00,,,0.00,714.0,meteohub,2013-03-17 17:12:00,
2013-03-17 10:17:00,73.8,19.8,29.96,SW,234,4.0,6.0,13,0.00,,,0.00,726.0,meteohub,2013-03-17 17:17:00,
2013-03-17 10:22:00,73.9,18.1,29.96,SSW,194,2.0,6.0,12,0.00,,,0.00,742.0,meteohub,2013-03-17 17:22:00,
2013-03-17 10:27:00,74.3,20.3,29.96,SW,226,5.0,7.0,13,0.00,,,0.00,752.0,meteohub,2013-03-17 17:27:00,
2013-03-17 10:32:00,74.5,20.5,29.95,SSW,194,4.0,7.0,13,0.00,,,0.00,765.0,meteohub,2013-03-17 17:32:00,
2013-03-17 10:37:00,74.8,20.7,29.95,WSW,245,5.0,7.0,13,0.00,,,0.00,777.0,meteohub,2013-03-17 17:37:00,
2013-03-17 10:42:00,75.4,21.2,29.94,WSW,254,5.0,9.0,13,0.00,,,0.00,788.0,meteohub,2013-03-17 17:42:00,
2013-03-17 10:47:00,76.1,21.7,29.94,West,259,4.0,10.0,13,0.00,,,0.00,798.0,meteohub,2013-03-17 17:47:00,
2013-03-17 10:52:00,76.6,22.1,29.94,NW,310,4.0,12.0,13,0.00,,,0.00,809.0,meteohub,2013-03-17 17:52:00,
2013-03-17 10:58:00,77.0,22.5,29.94,West,261,4.0,13.0,13,0.00,,,0.00,817.0,meteohub,2013-03-17 17:58:00,
2013-03-17 11:02:00,77.2,22.5,29.94,West,270,8.0,13.0,13,0.00,,,0.00,828.0,meteohub,2013-03-17 18:02:00,
2013-03-17 11:07:00,77.2,22.5,29.94,WNW,300,2.0,13.0,13,0.00,,,0.00,837.0,meteohub,2013-03-17 18:07:00,
2013-03-17 11:12:00,77.4,22.6,29.93,WNW,290,6.0,14.0,13,0.00,,,0.00,844.0,meteohub,2013-03-17 18:12:00,
2013-03-17 11:17:00,77.4,22.6,29.93,West,263,7.0,17.0,13,0.00,,,0.00,854.0,meteohub,2013-03-17 18:17:00,
2013-03-17 11:22:00,78.1,21.4,29.93,WSW,258,4.0,17.0,12,0.00,,,0.00,860.0,meteohub,2013-03-17 18:22:00,
2013-03-17 11:28:00,78.3,21.6,29.93,WSW,254,11.0,17.0,12,0.00,,,0.00,865.0,meteohub,2013-03-17 18:28:00,
2013-03-17 11:33:00,78.1,21.4,29.93,West,259,5.0,13.0,12,0.00,,,0.00,872.0,meteohub,2013-03-17 18:33:00,
2013-03-17 11:38:00,79.0,22.1,29.93,West,261,10.0,13.0,12,0.00,,,0.00,879.0,meteohub,2013-03-17 18:38:00,
2013-03-17 11:43:00,79.0,22.1,29.92,WSW,250,11.0,13.0,12,0.00,,,0.00,886.0,meteohub,2013-03-17 18:43:00,
2013-03-17 11:48:00,79.0,22.1,29.92,WSW,255,10.0,15.0,12,0.00,,,0.00,889.0,meteohub,2013-03-17 18:48:00,
2013-03-17 11:53:00,79.5,22.5,29.92,West,265,8.0,15.0,12,0.00,,,0.00,895.0,meteohub,2013-03-17 18:53:00,
2013-03-17 11:58:00,79.2,22.1,29.92,NW,306,7.0,15.0,12,0.00,,,0.00,898.0,meteohub,2013-03-17 18:58:00,
2013-03-17 12:03:00,79.2,22.1,29.92,SW,229,7.0,14.0,12,0.00,,,0.00,902.0,meteohub,2013-03-17 19:03:00,
2013-03-17 12:08:00,79.7,22.6,29.91,West,271,9.0,14.0,12,0.00,,,0.00,907.0,meteohub,2013-03-17 19:08:00,
2013-03-17 12:13:00,79.9,22.8,29.91,SSW,211,6.0,14.0,12,0.00,,,0.00,905.0,meteohub,2013-03-17 19:13:00,
2013-03-17 12:18:00,79.9,22.8,29.91,WSW,258,6.0,14.0,12,0.00,,,0.00,909.0,meteohub,2013-03-17 19:18:00,
2013-03-17 12:23:00,81.1,21.6,29.91,West,269,6.0,12.0,11,0.00,,,0.00,909.0,meteohub,2013-03-17 19:23:00,
2013-03-17 12:28:00,81.0,19.2,29.91,WNW,286,5.0,13.0,10,0.00,,,0.00,912.0,meteohub,2013-03-17 19:28:00,
2013-03-17 12:33:00,80.8,19.2,29.91,WSW,244,6.0,19.0,10,0.00,,,0.00,914.0,meteohub,2013-03-17 19:33:00,
2013-03-17 12:38:00,80.8,19.2,29.90,West,277,5.0,20.0,10,0.00,,,0.00,916.0,meteohub,2013-03-17 19:38:00,
2013-03-17 12:43:00,80.8,19.2,29.90,WSW,253,10.0,20.0,10,0.00,,,0.00,916.0,meteohub,2013-03-17 19:43:00,
2013-03-17 12:48:00,81.1,19.4,29.90,West,260,11.0,20.0,10,0.00,,,0.00,914.0,meteohub,2013-03-17 19:48:00,
2013-03-17 12:53:00,81.3,19.6,29.90,WSW,246,6.0,21.0,10,0.00,,,0.00,914.0,meteohub,2013-03-17 19:53:00,
2013-03-17 12:58:00,82.0,20.1,29.89,West,265,5.0,21.0,10,0.00,,,0.00,912.0,meteohub,2013-03-17 19:58:00,
2013-03-17 13:03:00,81.5,17.2,29.89,SW,229,12.0,21.0,9,0.00,,,0.00,911.0,meteohub,2013-03-17 20:03:00,
2013-03-17 13:08:00,81.7,19.8,29.89,WSW,251,20.0,24.0,10,0.00,,,0.00,904.0,meteohub,2013-03-17 20:08:00,
2013-03-17 13:13:00,81.7,17.4,29.89,WSW,248,10.0,24.0,9,0.00,,,0.00,904.0,meteohub,2013-03-17 20:13:00,
2013-03-17 13:18:00,82.0,17.6,29.89,WSW,248,9.0,21.0,9,0.00,,,0.00,898.0,meteohub,2013-03-17 20:18:00,
2013-03-17 13:23:00,81.7,17.4,29.88,West,260,12.0,20.0,9,0.00,,,0.00,893.0,meteohub,2013-03-17 20:23:00,
2013-03-17 13:28:00,81.3,19.6,29.88,West,263,6.0,19.0,10,0.00,,,0.00,893.0,meteohub,2013-03-17 20:28:00,
2013-03-17 13:33:00,81.5,19.8,29.88,SSW,209,8.0,22.0,10,0.00,,,0.00,882.0,meteohub,2013-03-17 20:33:00,
2013-03-17 13:38:00,82.0,20.1,29.88,WSW,238,6.0,22.0,10,0.00,,,0.00,879.0,meteohub,2013-03-17 20:38:00,
2013-03-17 13:43:00,82.8,18.1,29.88,WSW,258,10.0,20.0,9,0.00,,,0.00,875.0,meteohub,2013-03-17 20:43:00,
2013-03-17 13:48:00,82.2,17.8,29.87,West,275,5.0,20.0,9,0.00,,,0.00,870.0,meteohub,2013-03-17 20:48:00,
2013-03-17 13:53:00,81.9,17.4,29.87,West,265,12.0,20.0,9,0.00,,,0.00,860.0,meteohub,2013-03-17 20:53:00,
2013-03-17 13:58:00,82.0,17.6,29.87,WSW,257,12.0,19.0,9,0.00,,,0.00,851.0,meteohub,2013-03-17 20:58:00,
2013-03-17 14:03:00,82.2,15.1,29.87,West,273,10.0,19.0,8,0.00,,,0.00,844.0,meteohub,2013-03-17 21:03:00,
2013-03-17 14:08:00,82.2,17.8,29.86,NW,315,4.0,19.0,9,0.00,,,0.00,840.0,meteohub,2013-03-17 21:08:00,
2013-03-17 14:13:00,82.2,17.8,29.86,WSW,246,10.0,19.0,9,0.00,,,0.00,833.0,meteohub,2013-03-17 21:13:00,
2013-03-17 14:18:00,82.6,15.3,29.86,WNW,302,8.0,19.0,8,0.00,,,0.00,823.0,meteohub,2013-03-17 21:18:00,
2013-03-17 14:23:00,82.6,12.2,29.86,WSW,242,10.0,18.0,7,0.00,,,0.00,812.0,meteohub,2013-03-17 21:23:00,
2013-03-17 14:28:00,82.9,12.6,29.86,West,268,17.0,17.0,7,0.00,,,0.00,803.0,meteohub,2013-03-17 21:28:00,
2013-03-17 14:33:00,82.9,15.6,29.86,West,266,7.0,19.0,8,0.00,,,0.00,793.0,meteohub,2013-03-17 21:33:00,
2013-03-17 14:38:00,82.8,12.4,29.86,West,278,10.0,19.0,7,0.00,,,0.00,777.0,meteohub,2013-03-17 21:38:00,
2013-03-17 14:43:00,82.6,15.3,29.86,NW,304,4.0,19.0,8,0.00,,,0.00,765.0,meteohub,2013-03-17 21:43:00,
2013-03-17 14:48:00,82.8,15.4,29.86,West,278,7.0,18.0,8,0.00,,,0.00,754.0,meteohub,2013-03-17 21:48:00,
2013-03-17 14:53:00,82.4,15.3,29.86,WNW,284,12.0,18.0,8,0.00,,,0.00,742.0,meteohub,2013-03-17 21:53:00,
2013-03-17 14:58:00,82.0,14.9,29.86,WNW,297,5.0,21.0,8,0.00,,,0.00,729.0,meteohub,2013-03-17 21:58:00,
2013-03-17 15:03:00,82.4,18.0,29.86,WSW,257,4.0,21.0,9,0.00,,,0.00,717.0,meteohub,2013-03-17 22:03:00,
2013-03-17 15:08:00,82.0,14.9,29.85,WNW,287,5.0,21.0,8,0.00,,,0.00,701.0,meteohub,2013-03-17 22:08:00,
2013-03-17 15:13:00,82.0,17.6,29.86,WNW,285,7.0,21.0,9,0.00,,,0.00,687.0,meteohub,2013-03-17 22:13:00,
2013-03-17 15:18:00,82.0,17.6,29.86,WNW,283,5.0,21.0,9,0.00,,,0.00,675.0,meteohub,2013-03-17 22:18:00,
2013-03-17 15:23:00,82.2,17.8,29.86,NNW,333,11.0,21.0,9,0.00,,,0.00,661.0,meteohub,2013-03-17 22:23:00,
2013-03-17 15:29:00,81.7,17.4,29.85,WNW,288,8.0,21.0,9,0.00,,,0.00,649.0,meteohub,2013-03-17 22:29:00,
2013-03-17 15:34:00,81.9,19.9,29.85,WNW,301,5.0,19.0,10,0.00,,,0.00,633.0,meteohub,2013-03-17 22:34:00,
2013-03-17 15:39:00,82.2,17.8,29.85,West,259,14.0,18.0,9,0.00,,,0.00,621.0,meteohub,2013-03-17 22:39:00,
2013-03-17 15:44:00,81.9,17.4,29.85,NW,315,9.0,18.0,9,0.00,,,0.00,605.0,meteohub,2013-03-17 22:44:00,
2013-03-17 15:49:00,81.9,19.9,29.85,SW,233,9.0,18.0,10,0.00,,,0.00,584.0,meteohub,2013-03-17 22:49:00,
2013-03-17 15:54:00,82.0,20.1,29.85,WNW,296,11.0,18.0,10,0.00,,,0.00,577.0,meteohub,2013-03-17 22:54:00,
2013-03-17 15:59:00,82.0,20.1,29.85,West,263,6.0,18.0,10,0.00,,,0.00,550.0,meteohub,2013-03-17 22:59:00,
2013-03-17 16:04:00,82.0,20.1,29.85,West,264,9.0,20.0,10,0.00,,,0.00,540.0,meteohub,2013-03-17 23:04:00,
2013-03-17 16:09:00,81.9,17.4,29.85,West,269,11.0,20.0,9,0.00,,,0.00,526.0,meteohub,2013-03-17 23:09:00,
2013-03-17 16:14:00,81.9,17.4,29.86,West,279,7.0,20.0,9,0.00,,,0.00,461.0,meteohub,2013-03-17 23:14:00,
2013-03-17 16:19:00,81.7,17.4,29.86,NNW,327,17.0,19.0,9,0.00,,,0.00,403.0,meteohub,2013-03-17 23:19:00,
2013-03-17 16:24:00,81.1,16.9,29.86,West,269,5.0,18.0,9,0.00,,,0.00,473.0,meteohub,2013-03-17 23:24:00,
2013-03-17 16:29:00,81.1,19.4,29.86,SW,234,9.0,19.0,10,0.00,,,0.00,422.0,meteohub,2013-03-17 23:29:00,
2013-03-17 16:34:00,80.8,19.2,29.86,West,265,9.0,19.0,10,0.00,,,0.00,399.0,meteohub,2013-03-17 23:34:00,
2013-03-17 16:39:00,80.6,19.0,29.86,SW,231,9.0,16.0,10,0.00,,,0.00,367.0,meteohub,2013-03-17 23:39:00,
2013-03-17 16:44:00,80.1,18.5,29.86,West,278,5.0,20.0,10,0.00,,,0.00,118.0,meteohub,2013-03-17 23:44:00,
2013-03-17 16:49:00,79.2,20.1,29.87,WNW,293,3.0,20.0,11,0.00,,,0.00,200.0,meteohub,2013-03-17 23:49:00,
2013-03-17 16:54:00,79.0,19.9,29.87,West,274,8.0,15.0,11,0.00,,,0.00,315.0,meteohub,2013-03-17 23:54:00,
2013-03-17 16:59:00,79.0,19.9,29.87,West,279,9.0,15.0,11,0.00,,,0.00,341.0,meteohub,2013-03-17 23:59:00,
2013-03-17 17:04:00,79.0,19.9,29.87,West,279,10.0,15.0,11,0.00,,,0.00,162.0,meteohub,2013-03-18 00:04:00,
2013-03-17 17:09:00,78.1,21.4,29.87,WNW,285,3.0,15.0,12,0.00,,,0.00,135.0,meteohub,2013-03-18 00:09:00,
2013-03-17 17:14:00,78.1,19.2,29.87,SW,216,4.0,16.0,11,0.00,,,0.00,165.0,meteohub,2013-03-18 00:14:00,
2013-03-17 17:19:00,77.9,19.2,29.88,WSW,250,5.0,16.0,11,0.00,,,0.00,135.0,meteohub,2013-03-18 00:19:00,
2013-03-17 17:24:00,77.5,20.8,29.88,West,268,6.0,15.0,12,0.00,,,0.00,141.0,meteohub,2013-03-18 00:24:00,
2013-03-17 17:29:00,77.5,20.8,29.88,West,276,7.0,13.0,12,0.00,,,0.00,149.0,meteohub,2013-03-18 00:29:00,
2013-03-17 17:34:00,77.5,22.8,29.88,West,267,6.0,13.0,13,0.00,,,0.00,123.0,meteohub,2013-03-18 00:34:00,
2013-03-17 17:39:00,77.4,22.6,29.88,WSW,254,3.0,13.0,13,0.00,,,0.00,93.0,meteohub,2013-03-18 00:39:00,
2013-03-17 17:44:00,77.4,20.8,29.88,West,269,5.0,14.0,12,0.00,,,0.00,109.0,meteohub,2013-03-18 00:44:00,
2013-03-17 17:49:00,77.4,22.6,29.88,West,267,1.0,14.0,13,0.00,,,0.00,130.0,meteohub,2013-03-18 00:49:00,
2013-03-17 17:54:00,77.5,22.8,29.88,West,271,3.0,9.0,13,0.00,,,0.00,137.0,meteohub,2013-03-18 00:54:00,
2013-03-17 17:59:00,77.5,22.8,29.88,West,277,8.0,11.0,13,0.00,,,0.00,113.0,meteohub,2013-03-18 00:59:00,
2013-03-17 18:04:00,77.5,20.8,29.88,SW,231,7.0,12.0,12,0.00,,,0.00,79.0,meteohub,2013-03-18 01:04:00,
2013-03-17 18:09:00,77.2,22.5,29.89,West,263,3.0,12.0,13,0.00,,,0.00,51.0,meteohub,2013-03-18 01:09:00,
2013-03-17 18:14:00,76.8,22.3,29.89,WNW,290,6.0,13.0,13,0.00,,,0.00,35.0,meteohub,2013-03-18 01:14:00,
2013-03-17 18:19:00,76.5,21.9,29.89,West,275,2.0,13.0,13,0.00,,,0.00,28.0,meteohub,2013-03-18 01:19:00,
2013-03-17 18:24:00,75.9,21.6,29.89,WNW,284,5.0,13.0,13,0.00,,,0.00,21.0,meteohub,2013-03-18 01:24:00,
2013-03-17 18:29:00,75.4,21.2,29.89,NNW,329,3.0,11.0,13,0.00,,,0.00,11.0,meteohub,2013-03-18 01:29:00,
2013-03-17 18:34:00,74.8,22.5,29.89,West,261,4.0,11.0,14,0.00,,,0.00,5.0,meteohub,2013-03-18 01:34:00,
2013-03-17 18:39:00,74.5,22.1,29.90,West,269,4.0,9.0,14,0.00,,,0.00,0.0,meteohub,2013-03-18 01:39:00,
2013-03-17 18:44:00,74.1,21.9,29.90,West,267,6.0,9.0,14,0.00,,,0.00,0.0,meteohub,2013-03-18 01:44:00,
2013-03-17 18:49:00,73.9,21.7,29.90,WSW,257,2.0,9.0,14,0.00,,,0.00,0.0,meteohub,2013-03-18 01:49:00,
2013-03-17 18:54:00,73.6,23.0,29.90,WSW,256,1.0,9.0,15,0.00,,,0.00,0.0,meteohub,2013-03-18 01:54:00,
2013-03-17 18:59:00,73.0,22.6,29.90,WSW,256,1.0,8.0,15,0.00,,,0.00,0.0,meteohub,2013-03-18 01:59:00,
2013-03-17 19:04:00,72.7,22.3,29.90,West,259,2.0,6.0,15,0.00,,,0.00,0.0,meteohub,2013-03-18 02:04:00,
2013-03-17 19:09:00,72.1,21.9,29.90,West,259,1.0,5.0,15,0.00,,,0.00,0.0,meteohub,2013-03-18 02:09:00,
2013-03-17 19:15:00,71.8,23.2,29.90,West,259,1.0,5.0,16,0.00,,,0.00,0.0,meteohub,2013-03-18 02:15:00,
2013-03-17 19:20:00,71.2,22.8,29.90,West,259,0.0,5.0,16,0.00,,,0.00,0.0,meteohub,2013-03-18 02:20:00,
2013-03-17 19:24:00,70.3,23.5,29.90,West,259,0.0,3.0,17,0.00,,,0.00,0.0,meteohub,2013-03-18 02:24:00,
2013-03-17 19:29:00,69.6,22.8,29.91,West,259,0.0,2.0,17,0.00,,,0.00,0.0,meteohub,2013-03-18 02:29:00,
2013-03-17 19:34:00,68.7,23.5,29.91,West,259,1.0,2.0,18,0.00,,,0.00,0.0,meteohub,2013-03-18 02:34:00,
2013-03-17 19:40:00,68.0,24.3,29.91,West,259,1.0,2.0,19,0.00,,,0.00,0.0,meteohub,2013-03-18 02:40:00,
2013-03-17 19:45:00,67.5,23.7,29.91,West,259,1.0,2.0,19,0.00,,,0.00,0.0,meteohub,2013-03-18 02:45:00,
2013-03-17 19:50:00,67.3,23.5,29.91,West,259,1.0,2.0,19,0.00,,,0.00,0.0,meteohub,2013-03-18 02:50:00,
2013-03-17 19:55:00,66.9,23.4,29.91,West,259,1.0,2.0,19,0.00,,,0.00,0.0,meteohub,2013-03-18 02:55:00,
2013-03-17 20:00:00,66.7,23.2,29.91,West,259,2.0,2.0,19,0.00,,,0.00,0.0,meteohub,2013-03-18 03:00:00,
2013-03-17 20:05:00,66.6,24.3,29.91,West,259,1.0,2.0,20,0.00,,,0.00,0.0,meteohub,2013-03-18 03:05:00,
2013-03-17 20:10:00,66.4,24.1,29.91,West,259,2.0,2.0,20,0.00,,,0.00,0.0,meteohub,2013-03-18 03:10:00,
2013-03-17 20:15:00,66.4,22.8,29.91,West,261,1.0,2.0,19,0.00,,,0.00,0.0,meteohub,2013-03-18 03:15:00,
2013-03-17 20:20:00,66.4,22.8,29.91,WNW,284,1.0,3.0,19,0.00,,,0.00,0.0,meteohub,2013-03-18 03:20:00,
2013-03-17 20:25:00,66.7,21.9,29.91,WNW,284,1.0,3.0,18,0.00,,,0.00,0.0,meteohub,2013-03-18 03:25:00,
2013-03-17 20:30:00,67.3,22.3,29.92,WNW,284,0.0,4.0,18,0.00,,,0.00,0.0,meteohub,2013-03-18 03:30:00,
2013-03-17 20:35:00,67.5,22.5,29.92,WNW,284,1.0,4.0,18,0.00,,,0.00,0.0,meteohub,2013-03-18 03:35:00,
2013-03-17 20:40:00,66.7,23.2,29.92,WNW,284,0.0,2.0,19,0.00,,,0.00,0.0,meteohub,2013-03-18 03:40:00,
2013-03-17 20:45:00,66.2,23.9,29.93,WNW,284,1.0,2.0,20,0.00,,,0.00,0.0,meteohub,2013-03-18 03:45:00,
2013-03-17 20:50:00,65.5,24.4,29.93,WNW,284,1.0,2.0,21,0.00,,,0.00,0.0,meteohub,2013-03-18 03:50:00,
2013-03-17 20:55:00,64.2,23.5,29.93,WNW,284,1.0,2.0,21,0.00,,,0.00,0.0,meteohub,2013-03-18 03:55:00,
2013-03-17 21:00:00,63.3,23.9,29.93,WNW,284,1.0,2.0,22,0.00,,,0.00,0.0,meteohub,2013-03-18 04:00:00,
2013-03-17 21:05:00,62.8,24.4,29.94,WNW,284,0.0,2.0,23,0.00,,,0.00,0.0,meteohub,2013-03-18 04:05:00,
2013-03-17 21:10:00,62.1,23.9,29.94,WNW,284,0.0,2.0,23,0.00,,,0.00,0.0,meteohub,2013-03-18 04:10:00,
2013-03-17 21:15:00,61.5,23.4,29.94,WNW,284,1.0,2.0,23,0.00,,,0.00,0.0,meteohub,2013-03-18 04:15:00,
2013-03-17 21:20:00,61.2,24.1,29.94,WNW,284,0.0,2.0,24,0.00,,,0.00,0.0,meteohub,2013-03-18 04:20:00,
2013-03-17 21:25:00,60.6,23.5,29.94,WNW,284,1.0,2.0,24,0.00,,,0.00,0.0,meteohub,2013-03-18 04:25:00,
2013-03-17 21:30:00,60.3,25.2,29.95,WNW,284,0.0,1.0,26,0.00,,,0.00,0.0,meteohub,2013-03-18 04:30:00,
2013-03-17 21:35:00,59.7,23.9,29.95,WNW,294,3.0,3.0,25,0.00,,,0.00,0.0,meteohub,2013-03-18 04:35:00,
2013-03-17 21:40:00,60.3,24.3,29.95,WNW,294,1.0,3.0,25,0.00,,,0.00,0.0,meteohub,2013-03-18 04:40:00,
2013-03-17 21:45:00,60.4,24.4,29.96,WNW,294,0.0,3.0,25,0.00,,,0.00,0.0,meteohub,2013-03-18 04:45:00,
2013-03-17 21:50:00,59.7,24.8,29.96,WNW,294,0.0,3.0,26,0.00,,,0.00,0.0,meteohub,2013-03-18 04:50:00,
2013-03-17 21:55:00,59.2,25.2,29.96,WNW,294,0.0,2.0,27,0.00,,,0.00,0.0,meteohub,2013-03-18 04:55:00,
2013-03-17 22:00:00,58.5,24.6,29.96,WNW,294,0.0,1.0,27,0.00,,,0.00,0.0,meteohub,2013-03-18 05:00:00,
2013-03-17 22:05:00,57.9,24.1,29.96,WNW,294,0.0,1.0,27,0.00,,,0.00,0.0,meteohub,2013-03-18 05:05:00,
2013-03-17 22:10:00,57.4,25.3,29.97,WNW,294,0.0,1.0,29,0.00,,,0.00,0.0,meteohub,2013-03-18 05:10:00,
2013-03-17 22:15:00,56.7,24.8,29.97,WNW,294,0.0,1.0,29,0.00,,,0.00,0.0,meteohub,2013-03-18 05:15:00,
2013-03-17 22:20:00,56.1,25.2,29.97,WNW,294,1.0,1.0,30,0.00,,,0.00,0.0,meteohub,2013-03-18 05:20:00,
2013-03-17 22:25:00,55.8,25.5,29.97,WNW,294,0.0,1.0,31,0.00,,,0.00,0.0,meteohub,2013-03-18 05:25:00,
2013-03-17 22:30:00,55.6,26.2,29.97,WNW,294,0.0,1.0,32,0.00,,,0.00,0.0,meteohub,2013-03-18 05:30:00,
2013-03-17 22:35:00,55.2,25.9,29.97,WNW,294,0.0,1.0,32,0.00,,,0.00,0.0,meteohub,2013-03-18 05:35:00,
2013-03-17 22:40:00,55.0,25.7,29.97,WNW,294,2.0,2.0,32,0.00,,,0.00,0.0,meteohub,2013-03-18 05:40:00,
2013-03-17 22:45:00,55.0,25.7,29.97,WNW,294,0.0,2.0,32,0.00,,,0.00,0.0,meteohub,2013-03-18 05:45:00,
2013-03-17 22:50:00,54.9,25.5,29.97,WNW,294,0.0,2.0,32,0.00,,,0.00,0.0,meteohub,2013-03-18 05:50:00,
2013-03-17 22:55:00,54.5,25.2,29.97,WNW,294,1.0,2.0,32,0.00,,,0.00,0.0,meteohub,2013-03-18 05:55:00,
2013-03-17 23:00:00,54.1,26.4,29.97,WNW,294,1.0,1.0,34,0.00,,,0.00,0.0,meteohub,2013-03-18 06:00:00,
2013-03-17 23:05:00,53.8,26.1,29.97,WNW,294,1.0,1.0,34,0.00,,,0.00,0.0,meteohub,2013-03-18 06:05:00,
2013-03-17 23:10:00,53.8,26.1,29.97,WNW,294,0.0,2.0,34,0.00,,,0.00,0.0,meteohub,2013-03-18 06:10:00,
2013-03-17 23:15:00,54.0,25.5,29.97,WNW,294,1.0,2.0,33,0.00,,,0.00,0.0,meteohub,2013-03-18 06:15:00,
2013-03-17 23:20:00,54.1,26.4,29.98,WNW,294,1.0,2.0,34,0.00,,,0.00,0.0,meteohub,2013-03-18 06:20:00,
2013-03-17 23:25:00,54.0,26.2,29.98,WNW,294,1.0,2.0,34,0.00,,,0.00,0.0,meteohub,2013-03-18 06:25:00,
2013-03-17 23:30:00,54.0,26.2,29.98,WNW,294,0.0,2.0,34,0.00,,,0.00,0.0,meteohub,2013-03-18 06:30:00,
2013-03-17 23:35:00,53.6,25.9,29.98,WNW,294,0.0,2.0,34,0.00,,,0.00,0.0,meteohub,2013-03-18 06:35:00,
2013-03-17 23:41:00,53.2,26.2,29.98,WNW,294,0.0,2.0,35,0.00,,,0.00,0.0,meteohub,2013-03-18 06:41:00,
2013-03-17 23:46:00,52.9,25.9,29.98,WNW,294,0.0,1.0,35,0.00,,,0.00,0.0,meteohub,2013-03-18 06:46:00,
2013-03-17 23:51:00,52.5,26.2,29.97,WNW,294,1.0,1.0,36,0.00,,,0.00,0.0,meteohub,2013-03-18 06:51:00,
2013-03-17 23:56:00,52.3,26.8,29.97,WNW,294,0.0,1.0,37,0.00,,,0.00,0.0,meteohub,2013-03-18 06:56:00,